Weather History for CYPQ - April, 2013

Change the Weather History Date:

Monday, April 15, 2013

  Actual Average Record
Temperature  
Mean Temperature 44 °F -  
Max Temperature 60 °F 57 °F 77 °F (2003)
Min Temperature 29 °F 36 °F -10 °F (2013)
Degree Days  
Heating Degree Days 20    
Moisture  
Dew Point 35 °F    
Average Humidity 69    
Maximum Humidity 100    
Minimum Humidity 37    
Precipitation  
Precipitation 0.00 in 0.09 in - ()
Sea Level Pressure  
Sea Level Pressure 30.12 in    
Wind  
Wind Speed 5 mph ()    
Max Wind Speed 12 mph    
Max Gust Speed 18 mph    
Visibility 9.1 miles    
Events      
Averages and records for this station are not official NWS values.
T = Trace of Precipitation, MM = Missing Value Source: Averaged Metar Reports

Daily Weather History Graph

Daily Weather History Graph

Search for Another Location

Airport or City:

Trip Planner

Search our weather history database for the weather conditions in past years. The results will help you decide how hot, cold, wet, or windy it might be!

Date:

Astronomy

Apr. 15, 2013 Rise Set
Actual Time 6:29 AM EDT 7:58 PM EDT
Civil Twilight 5:59 AM EDT 8:28 PM EDT
Nautical Twilight 5:22 AM EDT 9:05 PM EDT
Astronomical Twilight 4:43 AM EDT 9:44 PM EDT
Moon 9:47 AM EDT (4/15) 12:15 AM EDT (4/15)
Length of Visible Light 14h 29m
Length of Day
13h 28m
Waxing Crescent, 24% of the Moon is Illuminated
Apr 15
Waxing Crescent
Apr 18
First Quarter
Apr 25
Full
May 2
Last Quarter
May 9
New

Hourly Weather History & Observations

Time (EDT) Temp. Windchill Dew Point Humidity Pressure Visibility Wind Dir Wind Speed Gust Speed Precip Events Conditions
12:00 AM 30.2 °F 26.7 °F 30.2 °F 100% 30.19 in 9.0 mi NE 3.5 mph - N/A   Clear
1:00 AM 30.2 °F - 30.2 °F 100% 30.18 in 9.0 mi Calm Calm - N/A   Mostly Cloudy
2:00 AM 31 °F - 30 °F 93% 30.18 in 10 mi ENE 3.5 mph - -   Overcast
2:00 AM 32.0 °F - 30.2 °F 93% 30.18 in 9.0 mi Variable 2.3 mph - N/A   Overcast
3:00 AM 30.2 °F - 28.4 °F 93% 30.19 in 9.0 mi Calm Calm - N/A   Overcast
4:00 AM 32.0 °F 28.7 °F 30.2 °F 93% 30.19 in 9.0 mi ENE 3.5 mph - N/A   Overcast
5:00 AM 33.8 °F 29.6 °F 28.4 °F 81% 30.19 in 9.0 mi East 4.6 mph - N/A   Overcast
6:00 AM 33.8 °F 28.6 °F 28.4 °F 81% 30.18 in 9.0 mi East 5.8 mph - N/A   Overcast
7:00 AM 35.6 °F 29.9 °F 26.6 °F 70% 30.20 in 9.0 mi East 6.9 mph - N/A   Overcast
8:00 AM 37 °F - 28 °F 59% 30.19 in 10 mi ENE 5.8 mph - -  
8:00 AM 37.4 °F 32.8 °F 28.4 °F 70% 30.19 in 9.0 mi East 5.8 mph - N/A   Mostly Cloudy
9:00 AM 41.0 °F 35.2 °F 28.4 °F 61% 30.17 in 9.0 mi East 9.2 mph - N/A   Partly Cloudy
10:00 AM 44.6 °F 38.8 °F 30.2 °F 57% 30.17 in 9.0 mi East 11.5 mph - N/A   Scattered Clouds
11:00 AM 48.2 °F - 33.8 °F 58% 30.15 in 9.0 mi East 9.2 mph - N/A   Clear
1:00 PM 55.4 °F - 35.6 °F 47% 30.11 in 9.0 mi ESE 11.5 mph 18.4 mph N/A   Clear
2:00 PM 57 °F - 38 °F 37% 30.11 in 10 mi SE 10.4 mph - -  
2:00 PM 57.2 °F - 37.4 °F 48% 30.11 in 9.0 mi SE 11.5 mph 18.4 mph N/A   Clear
3:00 PM 57.2 °F - 39.2 °F 51% 30.11 in 9.0 mi SE 6.9 mph - N/A   Mostly Cloudy
4:00 PM 60.8 °F - 41.0 °F 48% 30.06 in 9.0 mi SE 6.9 mph - N/A   Clear
5:00 PM 59.0 °F - 41.0 °F 51% 30.04 in 9.0 mi SSE 9.2 mph - N/A   Partly Cloudy
6:00 PM 59.0 °F - 41.0 °F 51% 30.04 in 9.0 mi ESE 8.1 mph - N/A   Mostly Cloudy
7:00 PM 57.2 °F - 41.0 °F 55% 30.03 in 9.0 mi East 4.6 mph - N/A   Scattered Clouds
8:00 PM 56 °F - 43 °F 50% 30.02 in 10 mi ENE 4.6 mph - -   Overcast
8:00 PM 55.4 °F - 42.8 °F 63% 30.02 in 9.0 mi ENE 4.6 mph - N/A   Overcast
9:00 PM 53.6 °F - 42.8 °F 67% 30.02 in 9.0 mi NE 4.6 mph - N/A   Overcast
10:00 PM 46.4 °F - 42.8 °F 87% 30.02 in 9.0 mi Variable 2.3 mph - N/A   Scattered Clouds
11:00 PM 46.4 °F 45.2 °F 42.8 °F 87% 30.03 in 9.0 mi SSE 3.5 mph - N/A   Mostly Cloudy